QPF
0.10 0.02 0.01 0.01 0.01 0.01 0.01 0.00 0.00 0.00 0.02 0.01 0.00 0.00 0.00 0.00 0.00 0.00 0.00 0.00 0.00 0.00 0.00 0.00 0.00 0.00 0.00 0.01 0.01 0.02 0.01 0.02 0.01 0.00 0.01 0.00 0.00 0.00 0.00 0.03 0.04 0.04 0.03
0.04 0.00 0.00 0.00 0.00 0.00 0.00 0.00 0.00 0.00 0.00 0.00 0.00 0.00 0.00 0.00 0.00 0.00 0.00 0.00 0.00 0.00 0.00 0.00 0.00 0.00 0.00 0.00 0.00 0.00 0.00 0.02 0.01 0.00 0.00 0.00 0.00 0.00 0.00 0.01 0.02 0.02 0.03
0.01 0.00 0.00 0.00 0.00 0.00 0.00 0.00 0.00 0.00 0.00 0.00 0.00 0.00 0.00 0.00 0.00 0.00 0.00 0.00 0.00 0.00 0.00 0.00 0.00 0.00 0.00 0.00 0.00 0.00 0.00 0.00 0.02 0.02 0.01 0.01 0.00 0.00 0.00 0.00 0.00 0.01 0.02
0.00 0.00 0.00 0.00 0.00 0.00 0.00 0.00 0.00 0.00 0.00 0.00 0.00 0.00 0.00 0.00 0.00 0.00 0.00 0.00 0.00 0.00 0.00 0.00 0.00 0.00 0.00 0.00 0.00 0.01 0.01 0.01 0.00 0.01 0.01 0.01 0.02 0.02 0.01 0.00 0.00 0.00 0.00
0.00 0.00 0.00 0.00 0.00 0.00 0.00 0.00 0.00 0.00 0.00 0.00 0.00 0.00 0.00 0.00 0.00 0.00 0.00 0.00 0.00 0.00 0.00 0.00 0.00 0.00 0.00 0.00 0.00 0.01 0.01 0.00 0.00 0.00 0.00 0.01 0.01 0.03 0.02 0.02 0.01 0.02 0.03
0.00 0.00 0.00 0.00 0.00 0.00 0.00 0.00 0.00 0.00 0.00 0.00 0.00 0.00 0.00 0.00 0.00 0.00 0.00 0.00 0.00 0.00 0.00 0.00 0.00 0.00 0.00 0.00 0.00 0.00 0.00 0.00 0.00 0.01 0.00 0.01 0.02 0.02 0.04 0.05 0.02 0.02 0.01
0.00 0.00 0.00 0.00 0.00 0.00 0.00 0.00 0.00 0.00 0.00 0.00 0.00 0.00 0.00 0.00 0.00 0.00 0.00 0.00 0.00 0.00 0.00 0.00 0.00 0.00 0.00 0.00 0.00 0.00 0.00 0.00 0.00 0.00 0.01 0.02 0.02 0.03 0.00 0.01 0.04 0.02 0.01
0.00 0.00 0.00 0.00 0.00 0.00 0.00 0.00 0.00 0.00 0.00 0.00 0.00 0.00 0.00 0.00 0.00 0.00 0.00 0.00 0.00 0.00 0.00 0.00 0.00 0.00 0.00 0.00 0.00 0.00 0.00 0.00 0.00 0.00 0.00 0.01 0.02 0.00 0.00 0.00 0.01 0.03 0.02
0.00 0.00 0.00 0.00 0.00 0.00 0.00 0.00 0.00 0.00 0.00 0.00 0.00 0.00 0.00 0.00 0.00 0.00 0.00 0.00 0.00 0.00 0.00 0.00 0.00 0.00 0.00 0.00 0.00 0.00 0.00 0.00 0.00 0.00 0.00 0.00 0.00 0.00 0.00 0.00 0.00 0.01 0.02
0.00 0.00 0.00 0.00 0.00 0.00 0.00 0.00 0.00 0.00 0.00 0.00 0.00 0.00 0.00 0.00 0.00 0.00 0.00 0.00 0.00 0.00 0.00 0.00 0.00 0.00 0.00 0.00 0.00 0.00 0.00 0.00 0.00 0.00 0.00 0.00 0.00 0.00 0.00 0.00 0.00 0.02 0.03
0.00 0.00 0.00 0.00 0.00 0.00 0.00 0.00 0.00 0.00 0.00 0.00 0.00 0.00 0.00 0.00 0.00 0.00 0.00 0.00 0.00 0.00 0.00 0.00 0.00 0.00 0.00 0.00 0.00 0.00 0.00 0.00 0.00 0.00 0.00 0.00 0.00 0.00 0.00 0.00 0.00 0.01 0.02
0.00 0.00 0.00 0.00 0.00 0.00 0.00 0.00 0.00 0.00 0.00 0.00 0.00 0.00 0.00 0.00 0.00 0.00 0.00 0.00 0.00 0.00 0.00 0.00 0.00 0.00 0.00 0.00 0.00 0.00 0.00 0.00 0.00 0.00 0.00 0.00 0.00 0.00 0.00 0.01 0.00 0.00 0.01
0.00 0.00 0.00 0.00 0.00 0.00 0.00 0.00 0.00 0.00 0.00 0.00 0.00 0.00 0.00 0.00 0.00 0.00 0.00 0.00 0.00 0.00 0.00 0.00 0.00 0.00 0.00 0.00 0.00 0.00 0.00 0.01 0.01 0.01 0.01 0.01 0.01 0.01 0.01 0.00 0.01 0.01 0.01
0.00 0.00 0.00 0.00 0.00 0.00 0.00 0.00 0.00 0.00 0.00 0.00 0.00 0.00 0.00 0.00 0.00 0.00 0.00 0.00 0.00 0.00 0.00 0.00 0.00 0.00 0.00 0.00 0.00 0.00 0.00 0.00 0.00 0.00 0.01 0.00 0.00 0.01 0.02 0.02 0.02 0.04 0.02
0.00 0.00 0.00 0.00 0.00 0.00 0.00 0.00 0.00 0.00 0.00 0.00 0.00 0.00 0.00 0.00 0.00 0.00 0.00 0.00 0.00 0.00 0.00 0.00 0.00 0.00 0.00 0.00 0.00 0.00 0.00 0.00 0.00 0.00 0.00 0.00 0.01 0.00 0.02 0.06 0.04 0.03 0.02
0.00 0.00 0.00 0.00 0.00 0.00 0.00 0.00 0.00 0.00 0.00 0.00 0.00 0.00 0.00 0.00 0.00 0.00 0.00 0.00 0.00 0.00 0.00 0.00 0.00 0.00 0.00 0.00 0.00 0.00 0.00 0.00 0.00 0.00 0.00 0.00 0.03 0.00 0.00 0.01 0.05 0.05 0.04
0.00 0.00 0.00 0.00 0.00 0.00 0.00 0.00 0.00 0.00 0.00 0.00 0.00 0.00 0.00 0.00 0.00 0.00 0.00 0.00 0.00 0.00 0.00 0.00 0.00 0.00 0.00 0.00 0.00 0.00 0.00 0.00 0.00 0.00 0.00 0.00 0.02 0.00 0.00 0.01 0.02 0.05 0.05
0.00 0.00 0.00 0.00 0.00 0.00 0.00 0.00 0.00 0.00 0.00 0.00 0.00 0.00 0.00 0.00 0.00 0.00 0.00 0.00 0.00 0.00 0.00 0.00 0.00 0.00 0.00 0.00 0.00 0.00 0.00 0.00 0.00 0.00 0.00 0.00 0.00 0.00 0.00 0.00 0.00 0.01 0.02
0.00 0.00 0.01 0.00 0.00 0.00 0.00 0.00 0.00 0.00 0.00 0.00 0.00 0.00 0.00 0.00 0.00 0.00 0.00 0.00 0.00 0.00 0.00 0.00 0.00 0.00 0.00 0.00 0.00 0.00 0.00 0.00 0.00 0.00 0.00 0.00 0.00 0.00 0.00 0.00 0.01 0.00 0.00
0.01 0.01 0.01 0.00 0.00 0.00 0.00 0.00 0.00 0.00 0.00 0.00 0.00 0.00 0.00 0.00 0.00 0.00 0.00 0.00 0.00 0.00 0.00 0.00 0.00 0.00 0.00 0.00 0.00 0.00 0.00 0.01 0.00 0.00 0.00 0.00 0.00 0.00 0.00 0.00 0.00 0.00 0.00
0.00 0.01 0.00 0.00 0.00 0.00 0.00 0.00 0.00 0.00 0.00 0.01 0.01 0.00 0.00 0.00 0.00 0.00 0.00 0.00 0.00 0.00 0.00 0.00 0.00 0.00 0.00 0.00 0.00 0.00 0.00 0.01 0.01 0.00 0.00 0.00 0.00 0.00 0.00 0.00 0.00 0.00 0.00
0.01 0.00 0.00 0.00 0.00 0.00 0.00 0.00 0.00 0.00 0.00 0.02 0.01 0.01 0.01 0.00 0.00 0.00 0.00 0.00 0.00 0.00 0.00 0.00 0.00 0.00 0.00 0.00 0.00 0.00 0.00 0.00 0.00 0.00 0.00 0.00 0.00 0.00 0.00 0.00 0.00 0.00 0.00
0.00 0.00 0.00 0.00 0.00 0.00 0.00 0.01 0.02 0.01 0.02 0.03 0.03 0.03 0.02 0.01 0.00 0.00 0.00 0.00 0.00 0.00 0.00 0.00 0.00 0.00 0.00 0.00 0.00 0.00 0.00 0.00 0.00 0.00 0.00 0.00 0.00 0.00 0.00 0.00 0.00 0.00 0.00
0.00 0.01 0.01 0.01 0.00 0.01 0.01 0.01 0.01 0.00 0.00 0.00 0.00 0.00 0.00 0.00 0.00 0.00 0.00 0.00 0.00 0.00 0.00 0.00 0.00 0.00 0.00 0.00 0.00 0.00 0.00 0.00 0.00 0.00 0.00 0.00 0.00 0.00 0.00 0.00 0.00 0.00 0.00
0.00 0.00 0.00 0.00 0.00 0.00 0.00 0.00 0.00 0.00 0.00 0.00 0.00 0.00 0.00 0.00 0.00 0.00 0.00 0.00 0.00 0.00 0.00 0.00 0.00 0.00 0.00 0.00 0.00 0.00 0.00 0.00 0.00 0.00 0.01 0.01 0.00 0.00 0.00 0.00 0.00 0.00 0.00
0.00 0.00 0.00 0.00 0.00 0.00 0.00 0.00 0.00 0.00 0.00 0.00 0.00 0.00 0.00 0.00 0.00 0.00 0.00 0.00 0.00 0.00 0.00 0.00 0.00 0.00 0.00 0.00 0.00 0.00 0.00 0.00 0.00 0.00 0.00 0.02 0.00 0.00 0.00 0.00 0.00 0.00 0.00
MSLP
1011.42 1012.41 1012.24 1013.34 1013.68 1013.81 1014.15 1014.77 1015.34 1015.65 1015.80 1015.99 1016.13 1016.10 1016.12 1016.44 1016.87 1017.02 1017.17 1017.34 1017.54 1017.53 1017.39 1017.33 1017.23 1017.38 1017.08 1016.84 1016.73 1016.45 1016.12 1015.97 1015.52 1014.88 1014.50 1014.27 1014.35 1014.07 1013.84 1013.84 1013.77 1013.84 1013.89
1013.13 1012.18 1012.10 1013.24 1013.92 1013.80 1014.12 1014.90 1015.22 1015.43 1015.76 1015.93 1016.12 1016.45 1016.54 1016.72 1016.95 1017.00 1017.05 1017.16 1017.44 1017.40 1017.18 1017.19 1016.95 1017.01 1016.95 1016.71 1016.37 1016.22 1015.80 1015.59 1015.27 1014.58 1014.31 1013.97 1013.85 1013.70 1013.51 1013.39 1013.29 1013.17 1013.21
1012.55 1011.94 1013.09 1013.86 1013.94 1014.01 1014.44 1015.10 1015.14 1015.38 1015.89 1016.16 1016.25 1016.36 1016.53 1016.78 1016.91 1017.07 1017.18 1017.28 1017.36 1017.36 1017.36 1017.20 1016.92 1016.94 1016.75 1016.40 1016.18 1015.70 1015.26 1014.98 1014.63 1014.27 1013.78 1013.42 1013.30 1013.18 1012.91 1012.80 1012.80 1012.68 1012.46
1013.09 1013.26 1013.78 1014.01 1013.80 1013.87 1014.71 1015.31 1015.24 1015.45 1015.86 1016.31 1016.56 1016.66 1016.75 1016.93 1017.00 1017.11 1017.22 1017.25 1017.26 1017.16 1017.22 1017.04 1016.80 1016.64 1016.44 1016.26 1015.84 1015.45 1015.04 1014.87 1014.25 1013.84 1013.28 1012.82 1012.73 1012.55 1012.51 1012.13 1011.91 1012.04 1012.07
1012.51 1013.03 1013.37 1013.50 1013.81 1014.41 1014.74 1015.26 1015.55 1015.80 1016.16 1016.37 1016.57 1016.70 1016.71 1016.89 1017.06 1017.44 1017.44 1017.16 1017.14 1016.95 1016.83 1016.51 1016.55 1016.62 1016.59 1016.37 1015.99 1015.20 1014.82 1014.35 1013.70 1013.09 1012.64 1012.42 1012.13 1012.01 1012.00 1011.66 1011.55 1011.29 1011.46
1012.78 1012.97 1013.19 1013.67 1014.39 1014.66 1014.78 1015.25 1015.75 1016.03 1016.32 1016.53 1016.63 1016.72 1016.84 1017.12 1017.56 1017.53 1017.37 1017.01 1016.83 1016.49 1016.32 1016.43 1016.54 1016.36 1016.07 1016.00 1015.74 1015.41 1015.24 1014.48 1013.71 1013.03 1012.36 1012.03 1011.95 1011.97 1011.61 1011.81 1011.42 1011.05 1011.01
1013.44 1013.58 1013.69 1013.87 1014.40 1014.84 1014.98 1015.31 1015.78 1016.12 1016.38 1016.38 1016.51 1016.70 1016.87 1017.10 1017.51 1017.35 1017.17 1016.62 1016.48 1016.24 1016.18 1016.29 1016.28 1016.07 1015.94 1015.78 1015.29 1014.86 1014.35 1014.02 1013.73 1013.25 1012.53 1012.05 1011.80 1011.73 1011.88 1011.56 1011.30 1010.95 1010.53
1013.23 1013.67 1014.16 1014.16 1014.53 1015.10 1015.12 1015.41 1015.70 1015.90 1016.16 1016.36 1016.48 1016.52 1016.61 1016.92 1017.07 1017.15 1016.96 1016.64 1016.39 1016.18 1016.25 1016.40 1016.43 1016.17 1015.97 1015.91 1015.19 1014.56 1013.96 1013.43 1012.95 1012.52 1012.15 1011.84 1011.66 1011.69 1011.73 1011.62 1011.59 1011.25 1010.69
1013.62 1013.66 1014.08 1014.38 1014.75 1015.08 1015.08 1015.28 1015.63 1015.94 1016.07 1016.25 1016.36 1016.37 1016.52 1016.78 1017.13 1017.25 1017.07 1016.49 1016.19 1016.24 1016.27 1016.25 1016.35 1015.91 1015.82 1015.62 1014.96 1014.50 1013.98 1013.27 1012.66 1012.25 1012.25 1012.11 1011.96 1011.92 1011.93 1011.56 1010.96 1010.93 1010.20
1014.05 1014.23 1014.20 1014.55 1014.85 1015.05 1015.14 1015.40 1015.88 1016.07 1016.12 1016.19 1016.38 1016.51 1016.87 1016.98 1017.46 1017.54 1017.21 1016.41 1016.23 1016.27 1016.05 1015.95 1015.94 1015.85 1015.38 1015.30 1014.82 1014.14 1013.61 1013.01 1012.47 1012.00 1011.73 1011.53 1011.12 1010.63 1011.07 1011.12 1010.11 1009.81 1009.77
1014.53 1014.45 1014.67 1015.03 1015.31 1015.45 1015.51 1015.70 1016.04 1016.12 1016.19 1016.43 1016.49 1016.65 1016.71 1017.19 1017.19 1017.54 1017.26 1016.63 1016.55 1016.16 1015.64 1015.30 1015.15 1015.37 1015.20 1014.78 1014.45 1013.61 1013.49 1012.99 1012.27 1011.68 1011.19 1010.86 1010.55 1010.29 1010.10 1009.87 1009.72 1009.23 1008.77
1014.79 1014.87 1015.01 1015.48 1015.42 1015.49 1015.79 1016.11 1016.29 1016.34 1016.58 1016.78 1016.66 1016.35 1016.39 1017.04 1017.38 1017.41 1017.24 1017.09 1017.01 1016.31 1015.62 1015.23 1015.03 1015.10 1014.70 1014.16 1013.75 1013.35 1012.97 1012.49 1011.77 1011.19 1010.69 1010.36 1009.84 1009.81 1009.59 1009.35 1009.19 1009.18 1008.66
1015.33 1015.47 1015.65 1015.78 1015.78 1016.10 1016.28 1016.44 1016.37 1016.67 1016.67 1016.70 1016.60 1016.40 1016.38 1016.63 1016.79 1017.21 1017.32 1017.21 1016.94 1016.54 1015.94 1015.43 1015.19 1014.84 1014.24 1013.45 1013.14 1012.82 1012.37 1011.47 1011.03 1010.57 1010.13 1009.66 1009.45 1009.23 1008.88 1008.95 1008.80 1008.64 1008.68
1015.97 1016.01 1016.08 1016.30 1016.59 1016.75 1016.76 1016.87 1016.79 1016.86 1016.95 1017.04 1016.89 1016.56 1016.61 1016.62 1016.82 1017.36 1017.40 1017.14 1016.75 1016.22 1015.79 1015.05 1014.65 1014.33 1013.81 1013.47 1012.62 1012.12 1011.63 1011.20 1010.83 1010.35 1009.99 1009.56 1009.45 1009.04 1008.66 1008.39 1008.24 1007.91 1008.16
1016.81 1016.83 1017.07 1017.21 1017.23 1017.27 1017.24 1017.35 1017.00 1017.72 1017.58 1017.34 1017.34 1017.16 1017.17 1017.22 1017.77 1018.18 1017.84 1017.23 1016.84 1016.39 1015.77 1014.64 1014.17 1013.88 1013.40 1013.05 1012.64 1012.22 1011.71 1011.33 1010.67 1010.20 1009.70 1009.48 1009.00 1008.87 1008.32 1007.75 1007.67 1007.63 1007.55
1017.54 1017.62 1017.51 1017.53 1017.20 1017.49 1017.38 1017.32 1018.09 1018.05 1018.07 1018.08 1018.22 1018.38 1018.11 1018.34 1018.25 1018.00 1017.80 1017.52 1017.10 1016.47 1015.40 1014.98 1014.56 1014.21 1013.83 1013.44 1012.94 1012.42 1011.83 1011.47 1011.08 1010.53 1009.91 1009.46 1008.86 1008.58 1008.08 1007.72 1007.38 1007.28 1007.20
1018.77 1018.27 1017.88 1017.69 1017.37 1017.42 1017.26 1017.49 1017.55 1018.00 1018.02 1018.31 1018.77 1018.85 1018.73 1018.42 1018.19 1018.06 1017.83 1017.49 1017.03 1016.32 1015.83 1015.44 1015.07 1014.76 1014.36 1013.87 1013.32 1012.70 1012.10 1011.72 1011.29 1010.53 1010.04 1009.55 1009.14 1008.53 1007.96 1007.65 1007.33 1006.91 1007.05
1018.40 1018.24 1018.07 1018.19 1017.99 1017.83 1017.92 1017.86 1017.70 1017.77 1017.63 1017.96 1018.58 1018.73 1018.65 1018.53 1018.34 1018.14 1017.75 1017.08 1016.61 1016.35 1016.14 1015.96 1015.62 1015.19 1014.76 1014.27 1013.57 1012.90 1012.40 1011.80 1011.21 1010.54 1010.14 1009.60 1009.35 1008.71 1007.85 1007.20 1007.03 1006.96 1007.15
1017.85 1017.94 1018.33 1018.65 1018.33 1018.32 1018.16 1018.14 1018.30 1018.35 1017.92 1017.86 1017.74 1018.11 1018.32 1018.45 1018.38 1018.19 1017.79 1017.25 1016.91 1016.66 1016.49 1016.22 1015.92 1015.50 1015.02 1014.41 1013.86 1013.21 1012.68 1012.08 1011.50 1010.67 1010.33 1010.04 1009.57 1008.75 1007.86 1006.93 1006.30 1006.99 1007.47
1017.81 1018.45 1018.54 1018.04 1018.23 1018.38 1018.23 1018.03 1018.35 1018.40 1018.09 1017.83 1017.69 1017.74 1017.83 1017.50 1017.43 1017.47 1017.49 1017.40 1017.10 1016.95 1016.83 1016.54 1016.38 1016.10 1015.99 1015.28 1014.38 1013.69 1013.12 1012.49 1011.77 1010.95 1010.59 1010.22 1010.05 1009.26 1008.44 1007.73 1007.22 1007.54 1008.26
1017.68 1018.24 1018.40 1017.98 1018.12 1018.27 1018.33 1018.39 1018.59 1018.42 1018.15 1018.02 1017.98 1018.18 1018.67 1018.08 1017.37 1017.50 1017.42 1017.45 1017.39 1017.26 1017.23 1017.01 1016.64 1016.20 1015.86 1015.91 1015.82 1014.95 1014.00 1013.46 1012.31 1011.61 1011.00 1010.54 1010.29 1009.78 1009.25 1008.95 1008.74 1008.92 1009.34
1017.68 1017.76 1017.86 1018.16 1018.41 1018.88 1018.95 1018.70 1018.49 1018.41 1018.13 1017.98 1018.10 1018.30 1018.40 1018.08 1017.51 1017.57 1017.47 1017.52 1017.59 1017.61 1017.55 1017.34 1016.88 1016.58 1016.49 1016.65 1016.21 1015.76 1014.89 1014.28 1013.28 1012.45 1011.38 1011.04 1010.69 1010.42 1010.17 1010.08 1010.23 1010.42 1010.89
1017.68 1017.83 1017.94 1018.17 1018.51 1018.65 1019.07 1018.75 1018.32 1018.07 1017.95 1017.93 1017.84 1017.89 1018.08 1017.85 1017.69 1017.61 1017.83 1017.77 1017.79 1017.79 1017.80 1017.65 1017.37 1017.07 1016.88 1016.74 1016.69 1016.40 1015.32 1015.17 1014.61 1013.19 1012.01 1011.43 1011.37 1011.26 1011.27 1011.24 1011.34 1011.57 1011.79
1018.01 1018.02 1018.30 1018.55 1018.52 1018.37 1018.38 1018.31 1018.34 1018.52 1018.37 1018.39 1018.56 1018.79 1018.63 1018.60 1018.64 1018.62 1018.31 1018.22 1018.13 1018.13 1018.16 1018.04 1017.91 1017.72 1017.45 1017.09 1016.61 1016.60 1016.18 1016.02 1015.32 1013.99 1012.55 1011.89 1011.78 1012.12 1011.82 1012.00 1011.55 1012.22 1012.54
1018.84 1018.77 1018.74 1018.83 1018.84 1018.88 1018.83 1018.67 1018.67 1018.73 1018.83 1018.97 1019.34 1019.51 1019.52 1019.33 1019.07 1018.97 1018.91 1018.87 1018.77 1018.58 1018.54 1018.45 1018.24 1017.97 1017.66 1017.39 1017.08 1016.89 1016.64 1016.18 1015.52 1014.81 1013.57 1012.29 1012.08 1012.02 1012.04 1011.93 1012.52 1012.55 1012.59
1019.59 1019.61 1019.59 1019.52 1019.45 1019.39 1019.34 1019.33 1019.38 1019.39 1019.40 1019.79 1020.26 1020.15 1019.78 1019.68 1019.63 1019.55 1019.52 1019.50 1019.29 1018.99 1018.91 1018.66 1018.50 1018.27 1017.90 1017.51 1017.56 1017.54 1016.95 1016.37 1015.69 1014.98 1014.19 1012.96 1012.42 1012.22 1012.51 1012.61 1012.73 1012.78 1013.12
Thickness
5705 5716 5720 5715 5710 5706 5701 5694 5686 5680 5675 5669 5664 5660 5655 5648 5640 5635 5628 5621 5613 5607 5603 5598 5592 5586 5583 5578 5573 5569 5565 5561 5558 5563 5566 5567 5565 5568 5571 5572 5576 5578 5579
5697 5709 5712 5708 5701 5699 5694 5685 5679 5672 5666 5660 5655 5646 5640 5635 5629 5622 5616 5610 5600 5595 5592 5586 5582 5576 5568 5564 5558 5550 5546 5543 5539 5542 5544 5546 5548 5551 5555 5558 5561 5566 5569
5699 5705 5700 5695 5692 5689 5683 5674 5671 5665 5655 5648 5641 5635 5629 5623 5618 5611 5605 5597 5590 5584 5578 5574 5570 5561 5552 5546 5540 5535 5532 5530 5528 5527 5529 5533 5535 5536 5541 5545 5548 5553 5558
5695 5693 5687 5683 5683 5679 5670 5661 5659 5654 5645 5635 5627 5622 5617 5611 5607 5600 5593 5587 5580 5575 5568 5562 5555 5547 5541 5535 5530 5526 5525 5521 5522 5519 5520 5524 5526 5528 5529 5533 5538 5541 5545
5697 5689 5682 5677 5670 5664 5658 5651 5644 5638 5630 5624 5618 5612 5607 5602 5595 5587 5581 5577 5569 5563 5558 5553 5544 5536 5528 5524 5521 5522 5522 5521 5521 5521 5519 5518 5520 5520 5519 5526 5528 5533 5534
5685 5678 5673 5665 5656 5653 5649 5640 5631 5625 5618 5612 5606 5600 5595 5588 5579 5573 5567 5565 5558 5556 5550 5541 5532 5527 5524 5519 5516 5514 5512 5514 5516 5516 5519 5516 5513 5511 5513 5510 5514 5520 5522
5668 5662 5659 5654 5647 5642 5638 5630 5621 5614 5608 5603 5597 5590 5584 5578 5565 5560 5555 5557 5552 5546 5540 5533 5525 5521 5519 5516 5515 5512 5512 5509 5507 5508 5510 5509 5506 5504 5501 5502 5504 5508 5514
5657 5650 5643 5642 5637 5628 5626 5619 5613 5607 5598 5592 5586 5581 5575 5567 5557 5550 5546 5544 5539 5535 5528 5520 5514 5511 5510 5507 5509 5510 5509 5507 5506 5505 5505 5503 5500 5495 5493 5491 5490 5492 5499
5642 5639 5635 5633 5624 5619 5615 5610 5602 5594 5588 5581 5575 5569 5563 5556 5545 5536 5532 5532 5529 5522 5515 5510 5505 5505 5501 5500 5503 5500 5499 5499 5498 5496 5491 5489 5486 5482 5480 5482 5485 5482 5492
5629 5624 5625 5619 5612 5609 5605 5598 5588 5581 5574 5567 5560 5555 5545 5539 5528 5520 5518 5521 5515 5509 5506 5502 5498 5497 5497 5493 5495 5495 5493 5491 5488 5484 5481 5481 5480 5481 5476 5474 5481 5482 5483
5621 5618 5613 5606 5601 5595 5590 5583 5574 5567 5560 5552 5546 5539 5533 5523 5519 5508 5506 5508 5502 5500 5500 5499 5498 5492 5488 5487 5485 5491 5485 5481 5479 5477 5476 5475 5476 5475 5475 5474 5473 5476 5479
5610 5606 5600 5592 5587 5581 5573 5564 5557 5551 5543 5535 5531 5528 5521 5511 5502 5497 5494 5490 5486 5489 5491 5491 5490 5483 5482 5482 5483 5481 5478 5475 5476 5473 5472 5471 5474 5470 5469 5468 5466 5464 5467
5594 5589 5582 5576 5571 5562 5554 5548 5544 5536 5532 5527 5522 5516 5509 5502 5496 5488 5482 5478 5476 5476 5477 5478 5475 5475 5477 5481 5479 5476 5473 5477 5475 5473 5471 5472 5469 5467 5465 5460 5458 5458 5459
5576 5569 5563 5557 5548 5542 5536 5531 5527 5523 5519 5512 5506 5502 5496 5491 5485 5476 5471 5469 5468 5469 5469 5473 5472 5471 5471 5471 5475 5474 5473 5471 5468 5466 5464 5463 5460 5460 5458 5457 5456 5458 5458
5555 5549 5540 5533 5526 5522 5519 5514 5513 5501 5498 5499 5492 5486 5481 5476 5466 5456 5456 5460 5460 5458 5459 5468 5469 5468 5467 5465 5464 5462 5461 5460 5460 5459 5459 5456 5457 5453 5453 5456 5454 5455 5459
5536 5529 5522 5516 5512 5507 5505 5502 5487 5485 5481 5477 5470 5462 5462 5455 5452 5451 5451 5449 5448 5449 5458 5457 5457 5456 5454 5453 5452 5452 5452 5449 5448 5448 5449 5449 5454 5451 5450 5451 5453 5454 5458
5515 5512 5508 5503 5501 5495 5494 5488 5486 5477 5472 5464 5455 5449 5446 5446 5447 5446 5444 5443 5442 5445 5447 5446 5445 5443 5442 5442 5442 5443 5443 5440 5438 5440 5441 5443 5446 5447 5447 5449 5452 5458 5459
5503 5495 5492 5486 5483 5480 5475 5472 5473 5470 5469 5462 5449 5444 5442 5441 5439 5436 5436 5439 5440 5439 5437 5435 5434 5435 5434 5434 5435 5435 5433 5433 5433 5435 5436 5441 5439 5443 5449 5452 5454 5457 5458
5496 5490 5481 5473 5470 5463 5461 5461 5457 5453 5457 5455 5452 5445 5441 5435 5432 5430 5430 5432 5432 5431 5430 5430 5430 5430 5430 5431 5430 5430 5429 5428 5428 5432 5433 5435 5436 5443 5451 5458 5465 5457 5455
5494 5481 5474 5474 5468 5463 5462 5461 5452 5450 5451 5450 5448 5444 5441 5440 5438 5434 5430 5427 5428 5427 5426 5426 5425 5424 5419 5421 5424 5424 5424 5424 5425 5429 5431 5435 5434 5441 5450 5456 5461 5459 5453
5491 5480 5473 5473 5469 5465 5461 5456 5450 5448 5447 5445 5441 5435 5423 5432 5435 5430 5428 5426 5425 5425 5423 5423 5423 5423 5421 5416 5411 5414 5417 5416 5422 5425 5429 5434 5436 5440 5445 5449 5452 5451 5448
5490 5483 5478 5473 5467 5458 5455 5451 5448 5446 5446 5443 5437 5432 5425 5429 5432 5429 5429 5427 5425 5423 5421 5420 5421 5420 5417 5411 5411 5409 5412 5412 5417 5420 5428 5431 5435 5438 5442 5445 5444 5444 5442
5488 5482 5477 5473 5465 5458 5451 5452 5451 5450 5447 5443 5440 5436 5432 5433 5433 5432 5428 5428 5426 5424 5421 5420 5419 5419 5416 5413 5410 5408 5413 5408 5408 5415 5423 5428 5431 5435 5436 5438 5439 5440 5440
5485 5480 5475 5469 5469 5467 5462 5459 5454 5445 5445 5442 5437 5432 5432 5431 5429 5427 5429 5427 5426 5423 5421 5420 5418 5417 5416 5414 5414 5410 5409 5407 5407 5411 5418 5424 5428 5428 5434 5434 5444 5438 5438
5481 5478 5474 5471 5467 5463 5460 5458 5455 5450 5446 5442 5436 5432 5430 5430 5431 5429 5428 5426 5424 5424 5422 5420 5419 5419 5418 5417 5415 5413 5412 5413 5412 5412 5414 5422 5426 5430 5434 5439 5435 5439 5442
5480 5474 5470 5468 5465 5463 5460 5457 5453 5450 5447 5441 5434 5433 5435 5433 5431 5430 5427 5425 5424 5424 5423 5422 5421 5420 5421 5420 5417 5416 5417 5417 5418 5418 5417 5421 5426 5430 5431 5434 5436 5437 5435